Location: Unspecified
(0.0000°N, 0.0000°E)
Time: 05:53:53
(UTC+02:00)

Cosmos 1536 - Visible Passes

Search period start: 01 September 2015 00:00
Search period end: 11 September 2015 00:00
Orbit: 544 x 564 km, 82.5° (Epoch: 30 August)

Date Brightness Start Highest point End Pass type
(mag) Time Alt. Az. Time Alt. Az. Time Alt. Az.
01 Sep 6.1 06:42:31 10° NE 06:44:51 16° E 06:47:24 10° SE visible
01 Sep 6.4 20:17:33 10° WSW 20:19:53 14° W 20:22:01 10° NW visible
02 Sep 5.8 06:39:09 10° NE 06:41:53 18° E 06:44:46 10° SE visible
03 Sep 5.5 06:35:51 10° NE 06:38:53 22° E 06:42:04 10° SE visible
04 Sep 5.2 06:32:36 10° NNE 06:35:53 25° E 06:39:18 10° SE visible
05 Sep 4.8 06:29:24 10° NNE 06:32:53 30° E 06:36:29 10° SSE visible
06 Sep 4.4 06:26:14 10° NNE 06:29:53 35° E 06:33:38 10° SSE visible
07 Sep 4.0 06:23:06 10° NNE 06:26:53 42° E 06:30:44 10° SSE visible
08 Sep 3.6 06:19:59 10° N 06:23:52 51° E 06:27:48 10° SSE visible
09 Sep 3.2 06:16:54 10° N 06:20:52 62° E 06:24:52 10° SSE visible
10 Sep 3.9 06:19:29 34° SSE 06:19:29 34° SSE 06:21:53 10° S visible
